Change the Weather History Date:

Monday, January 13, 2014

  Actual Average Record
Temperature  
Mean Temperature 46 °F -  
Max Temperature 51 °F 53 °F 57 °F (1997)
Min Temperature 40 °F 36 °F 24 °F (2003)
Degree Days  
Heating Degree Days 20    
Moisture  
Dew Point 43 °F    
Average Humidity 92    
Maximum Humidity 100    
Minimum Humidity 80    
Precipitation  
Precipitation 0.08 in 0.09 in - ()
Sea Level Pressure  
Sea Level Pressure 30.07 in    
Wind  
Wind Speed 5 mph ()    
Max Wind Speed 13 mph    
Max Gust Speed -    
Visibility 3.1 miles    
Events Fog , Rain    
Averages and records for this station are not official NWS values.
T = Trace of Precipitation, MM = Missing Value Source: Averaged Metar Reports

Daily Weather History Graph

Daily Weather History Graph

Search for Another Location

Airport or City:

Trip Planner

Search our weather history database for the weather conditions in past years. The results will help you decide how hot, cold, wet, or windy it might be!

Date:

Astronomy

Jan. 13, 2014 Rise Set
Actual Time 7:49 AM CET 5:04 PM CET
Civil Twilight 7:17 AM CET 5:36 PM CET
Nautical Twilight 6:42 AM CET 6:12 PM CET
Astronomical Twilight 6:07 AM CET 6:46 PM CET
Moon 3:06 PM CET (1/13) 5:24 AM CET (1/13)
Length of Visible Light 10h 18m
Length of Day
9h 14m
Waxing Gibbous, 93% of the Moon is Illuminated
Jan 13
Waxing Gibbous
Jan 16
Full
Jan 24
Last Quarter
Jan 30
New
Feb 6
First Quarter

Hourly Weather History & Observations

Time (CET) Temp. Windchill Dew Point Humidity Pressure Visibility Wind Dir Wind Speed Gust Speed Precip Events Conditions
12:15 AM 42.8 °F - 41.0 °F 93% 30.15 in 1.2 mi ESE 2.3 mph - N/A Fog Patches of Fog
12:45 AM 39.2 °F - 39.2 °F 100% 30.15 in 0.2 mi SE 2.3 mph - N/A Fog Fog
1:00 AM 40 °F - 39 °F 93% 30.17 in 0 mi SE 2.3 mph - - Fog Partial Fog
1:15 AM 39.2 °F 35.9 °F 37.4 °F 93% 30.15 in 0.7 mi SSE 4.6 mph - N/A Fog Shallow Fog
1:45 AM 39.2 °F - 37.4 °F 93% 30.15 in 1.2 mi ESE 2.3 mph - N/A Fog Fog
2:15 AM 39.2 °F - 39.2 °F 100% 30.15 in 1.2 mi ESE 2.3 mph - N/A Fog Fog
2:45 AM 39.2 °F - 39.2 °F 100% 30.15 in 1.2 mi ESE 2.3 mph - N/A Fog Fog
3:15 AM 39.2 °F 35.0 °F 37.4 °F 93% 30.12 in 0.2 mi ESE 5.8 mph - N/A Fog Fog
3:45 AM 39.2 °F 35.9 °F 37.4 °F 93% 30.12 in 0.2 mi ESE 4.6 mph - N/A Fog Fog
4:00 AM 40 °F - 38 °F 91% 30.15 in 0 mi ESE 4.6 mph - - Fog Partial Fog
4:15 AM 39.2 °F 37.0 °F 37.4 °F 93% 30.12 in 0.2 mi East 3.5 mph - N/A Fog Fog
4:45 AM 39.2 °F 37.0 °F 39.2 °F 100% 30.12 in 0.2 mi East 3.5 mph - N/A Fog Fog
5:15 AM 41.0 °F 38.0 °F 39.2 °F 93% 30.12 in 0.6 mi ESE 4.6 mph - N/A Fog Fog
5:45 AM 41.0 °F 39.0 °F 39.2 °F 93% 30.12 in 0.4 mi ESE 3.5 mph - N/A Fog Fog
6:15 AM 41.0 °F 36.4 °F 39.2 °F 93% 30.12 in 0.7 mi ESE 6.9 mph - N/A Fog Shallow Fog
6:45 AM 41.0 °F 39.0 °F 39.2 °F 93% 30.12 in 1.2 mi ESE 3.5 mph - N/A   Mostly Cloudy
7:00 AM 41 °F - 40 °F 93% 30.14 in 1 mi ESE 3.5 mph - -   Mist
7:15 AM 41.0 °F - 39.2 °F 93% 30.12 in 1.2 mi SE 2.3 mph - N/A   Mostly Cloudy
7:45 AM 42.8 °F 40.1 °F 41.0 °F 93% 30.12 in 0.9 mi SE 4.6 mph - N/A   Mostly Cloudy
8:15 AM 42.8 °F 39.3 °F 42.8 °F 100% 30.12 in 1.2 mi ESE 5.8 mph - N/A   Mostly Cloudy
8:45 AM 42.8 °F 39.3 °F 42.8 °F 100% 30.12 in 1.9 mi ESE 5.8 mph - N/A   Mostly Cloudy
9:15 AM 44.6 °F 41.4 °F 42.8 °F 93% 30.12 in 2.5 mi ESE 5.8 mph - N/A   Mostly Cloudy
9:45 AM 44.6 °F 40.2 °F 42.8 °F 93% 30.12 in 3.1 mi ESE 8.1 mph - N/A   Mostly Cloudy
10:00 AM 45 °F - 43 °F 90% 30.15 in 3 mi ESE 8.1 mph - -   Mist
10:15 AM 44.6 °F 40.2 °F 44.6 °F 100% 30.12 in 3.7 mi East 8.1 mph - N/A   Mostly Cloudy
10:45 AM 46.4 °F 41.5 °F 44.6 °F 93% 30.12 in 4.3 mi ESE 10.4 mph - N/A   Mostly Cloudy
11:15 AM 46.4 °F 41.9 °F 44.6 °F 93% 30.12 in 5.0 mi ESE 9.2 mph - N/A   Mostly Cloudy
11:45 AM 46.4 °F 42.9 °F 44.6 °F 93% 30.12 in 6.2 mi ESE 6.9 mph - N/A   Mostly Cloudy
12:15 PM 46.4 °F 43.5 °F 44.6 °F 93% 30.09 in 6.2 mi ESE 5.8 mph - N/A   Mostly Cloudy
12:45 PM 48.2 °F - 44.6 °F 87% 30.09 in 6.2 mi ESE 5.8 mph - N/A   Mostly Cloudy
1:00 PM 47 °F - 45 °F 90% 30.10 in 6 mi ESE 5.8 mph - -   Overcast
1:15 PM 48.2 °F - 46.4 °F 93% 30.09 in 6.2 mi ESE 6.9 mph - N/A   Mostly Cloudy
1:45 PM 48.2 °F - 44.6 °F 87% 30.06 in 6.2 mi ESE 5.8 mph - N/A   Mostly Cloudy
2:15 PM 50.0 °F - 44.6 °F 82% 30.04 in 6.2 mi ESE 6.9 mph - N/A   Mostly Cloudy
2:45 PM 50.0 °F - 46.4 °F 87% 30.04 in 6.2 mi SE 6.9 mph - N/A   Mostly Cloudy
3:15 PM 50.0 °F - 46.4 °F 87% 30.04 in 6.2 mi ESE 8.1 mph - N/A   Mostly Cloudy
3:45 PM 50.0 °F - 46.4 °F 87% 30.04 in 6.2 mi ESE 9.2 mph - N/A   Mostly Cloudy
4:00 PM 50 °F - 46 °F 80% 30.05 in 6 mi ESE 9.2 mph - -   Overcast
4:15 PM 50.0 °F - 46.4 °F 87% 30.04 in 6.2 mi ESE 9.2 mph - N/A   Mostly Cloudy
4:45 PM 50.0 °F - 46.4 °F 87% 30.04 in 4.3 mi East 8.1 mph - N/A   Mostly Cloudy
5:15 PM 50.0 °F - 46.4 °F 87% 30.04 in 3.7 mi ESE 10.4 mph - N/A   Mostly Cloudy
5:45 PM 50.0 °F - 46.4 °F 87% 30.01 in 3.7 mi ESE 4.6 mph - N/A Rain Light Rain
6:15 PM 48.2 °F - 46.4 °F 93% 30.01 in 3.7 mi SE 9.2 mph - N/A   Mostly Cloudy
6:45 PM 48.2 °F - 46.4 °F 93% 30.01 in 3.7 mi ESE 10.4 mph - N/A   Light Drizzle
7:00 PM 49 °F - 46 °F 86% 30.02 in 4 mi ESE 10.4 mph - - Rain Light Drizzle
7:15 PM 48.2 °F - 46.4 °F 93% 30.01 in 3.7 mi ESE 9.2 mph - N/A   Light Drizzle
7:45 PM 48.2 °F - 46.4 °F 93% 30.01 in 3.7 mi East 5.8 mph - N/A   Mostly Cloudy
8:15 PM 48.2 °F - 46.4 °F 93% 29.98 in 2.5 mi ESE 8.1 mph - N/A Rain Rain
8:45 PM 48.2 °F - 46.4 °F 93% 29.95 in 2.5 mi ESE 8.1 mph - N/A Rain Light Rain
9:15 PM 48.2 °F - 46.4 °F 93% 29.95 in 3.1 mi ESE 6.9 mph - N/A Rain Light Rain
9:45 PM 48.2 °F - 46.4 °F 93% 29.95 in 3.1 mi SE 9.2 mph - N/A Rain Light Rain
10:00 PM 48 °F - 46 °F 89% 29.97 in 3 mi SE 9.2 mph - - Rain Light Rain
10:15 PM 48.2 °F - 46.4 °F 93% 29.92 in 3.7 mi ESE 10.4 mph - N/A   Light Drizzle
10:45 PM 48.2 °F - 46.4 °F 93% 29.92 in 3.7 mi ESE 11.5 mph - N/A   Light Drizzle
11:15 PM 48.2 °F - 46.4 °F 93% 29.89 in 4.3 mi ESE 11.5 mph - N/A   Light Drizzle
11:45 PM 50.0 °F - 46.4 °F 87% 29.89 in 5.0 mi ESE 12.7 mph - N/A   Mostly Cloudy